GW4329 Weather Reports


time (UTC)temp
C
wind
direction
speed
KPH
gust
KPH
rain 1hr
cm
rain 24hr
cm
rain mn
cm
humidity
%
barometer
mb
20260503020903 12 0 0.0 0.0 0.05 0.41 0.18 89 1011.3
20260503020003 12 201 0.0 3.2 0.05 0.41 0.18 88 1011.4
20260503015403 12 0 0.0 0.0 0.05 0.41 0.18 89 1011.5
20260503014717 12 119 0.0 1.6 0.05 0.41 0.18 89 1011.4
20260503013603 12 119 0.0 1.6 0.05 0.41 0.18 88 1011.3
20260503012703 12 122 0.0 1.6 0.05 0.41 0.18 88 1011.5
20260503011803 12 158 0.0 3.2 0.05 0.41 0.18 88 1011.9
20260503010903 12 163 1.6 6.4 0.03 0.36 0.15 88 1012.3
20260503010003 13 207 1.6 4.8 0.00 0.33 0.13 87 1012.0
20260503005403 13 17 1.6 1.6 0.00 0.33 0.13 87 1011.7
20260503004503 13 18 0.0 1.6 0.03 0.33 0.13 87 1011.8
20260503003603 13 18 0.0 1.6 0.05 0.33 0.13 86 1011.6
20260503002703 13 353 1.6 4.8 0.13 0.33 0.13 86 1011.8
20260503001803 13 357 3.2 9.7 0.13 0.33 0.13 86 1011.8
20260503000903 13 5 3.2 6.4 0.13 0.33 0.13 86 1011.9
20260503000003 13 346 1.6 4.8 0.13 0.33 0.13 85 1012.4
20260502235403 13 300 1.6 4.8 0.13 0.33 0.13 84 1012.8
20260502234503 13 251 1.6 6.4 0.10 0.33 0.10 85 1013.0
20260502233603 13 258 3.2 8.0 0.05 0.28 0.05 86 1013.2
20260502232703 14 204 3.2 6.4 0.00 0.23 0.00 87 1013.6
20260502231803 14 255 0.0 3.2 0.00 0.23 0.00 87 1013.5
20260502231117 14 259 1.6 3.2 0.00 0.23 0.00 87 1013.5
20260502230003 13 229 1.6 3.2 0.00 0.23 0.00 88 1013.4
20260502225403 13 217 1.6 6.4 0.00 0.23 0.00 87 1013.7
20260502224503 13 187 1.6 3.2 0.00 0.23 0.00 87 1013.6
20260502223603 13 201 1.6 4.8 0.00 0.23 0.00 87 1013.5
20260502222918 13 191 3.2 9.7 0.00 0.23 0.00 87 1013.3
20260502222018 13 9 1.6 6.4 0.00 0.23 0.00 86 1013.3
20260502220903 13 7 0.0 1.6 0.00 0.23 0.00 86 1012.8
20260502220216 13 7 0.0 1.6 0.00 0.23 0.00 86 1012.8
20260502215403 13 7 0.0 1.6 0.03 0.23 0.23 86 1012.8
20260502214503 13 347 1.6 3.2 0.23 0.23 0.23 85 1012.9
20260502213603 13 298 1.6 3.2 0.23 0.23 0.23 84 1013.1
20260502212703 14 283 0.0 1.6 0.23 0.23 0.23 83 1013.2
20260502211803 14 283 0.0 1.6 0.23 0.23 0.23 81 1013.4
20260502210903 15 283 0.0 1.6 0.23 0.23 0.23 79 1013.8
20260502210003 15 270 1.6 6.4 0.23 0.23 0.23 75 1013.8
20260502205615 16 234 1.6 6.4 0.23 0.23 0.23 73 1014.0
20260502204503 16 71 0.0 1.6 0.00 0.00 0.00 69 1014.2
20260502203603 16 40 0.0 1.6 0.00 0.00 0.00 68 1013.9
20260502202918 16 14 1.6 4.8 0.00 0.00 0.00 67 1013.9
20260502202017 16 1 3.2 4.8 0.00 0.00 0.00 67 1013.6
20260502200903 17 360 1.6 3.2 0.00 0.00 0.00 67 1014.0
20260502200003 17 17 1.6 3.2 0.00 0.00 0.00 67 1014.1
20260502195403 17 13 1.6 3.2 0.00 0.00 0.00 67 1014.0
20260502194503 17 7 1.6 3.2 0.00 0.00 0.00 67 1013.9
20260502193603 17 12 1.6 3.2 0.00 0.00 0.00 67 1013.9
20260502192703 17 337 1.6 6.4 0.00 0.00 0.00 66 1013.9
20260502191803 18 356 3.2 4.8 0.00 0.00 0.00 66 1013.9
20260502190903 18 1 3.2 8.0 0.00 0.00 0.00 66 1013.9
20260502190219 18 7 3.2 8.0 0.00 0.00 0.00 65 1013.8
20260502185403 18 6 4.8 8.0 0.00 0.00 0.00 65 1013.7
20260502184503 18 1 4.8 11.3 0.00 0.00 0.00 64 1013.7
20260502183603 18 2 4.8 8.0 0.00 0.00 0.00 64 1013.8
20260502181803 20 6 4.8 9.7 0.00 0.00 0.00 63 1013.8
20260502181115 20 3 4.8 9.7 0.00 0.00 0.00 62 1013.9
20260502163603 22 213 6.4 9.7 0.00 0.00 0.00 59 1014.2
20260502162703 22 231 4.8 9.7 0.00 0.00 0.00 57 1014.3
20260502161803 22 230 4.8 11.3 0.00 0.00 0.00 59 1014.3
20260502160903 22 229 6.4 9.7 0.00 0.00 0.00 58 1014.4
20260502151803 23 244 4.8 8.0 0.00 0.00 0.00 55 1014.8
20260502150903 22 207 8.0 14.5 0.00 0.00 0.00 55 1014.9
20260502122703 23 198 12.9 22.5 0.00 0.00 0.00 54 1016.2
20260502121803 22 201 11.3 20.9 0.00 0.00 0.00 57 1016.3
20260502121117 22 219 12.9 25.7 0.00 0.00 0.00 55 1016.3
20260502115403 22 229 9.7 19.3 0.00 0.00 0.00 56 1016.5
20260502114503 22 220 12.9 22.5 0.00 0.00 0.00 56 1016.5
20260502113819 22 234 14.5 24.1 0.00 0.00 0.00 59 1016.6
20260502112703 22 224 12.9 24.1 0.00 0.00 0.00 54 1016.7
20260502111803 22 220 12.9 22.5 0.00 0.00 0.00 53 1016.6
20260502110903 22 201 9.7 20.9 0.00 0.00 0.00 56 1016.6
20260502110003 22 203 11.3 20.9 0.00 0.00 0.00 56 1016.8
20260502105616 22 203 12.9 22.5 0.00 0.00 0.00 55 1016.8
20260502104503 22 233 11.3 22.5 0.00 0.00 0.00 54 1017.0
20260502103603 22 204 9.7 20.9 0.00 0.00 0.00 56 1017.0
20260502102703 22 214 6.4 12.9 0.00 0.00 0.00 51 1017.1
20260502101803 22 177 1.6 8.0 0.00 0.00 0.00 48 1017.0
20260502100903 21 205 4.8 16.1 0.00 0.00 0.00 49 1017.2
20260502091116 18 200 4.8 12.9 0.00 0.00 0.00 54 1017.5
20260502071115 17 220 1.6 3.2 0.00 0.00 0.00 56 1017.7
20260502070219 16 219 1.6 4.8 0.00 0.00 0.00 60 1017.8
20260502065618 15 205 1.6 6.4 0.00 0.00 0.00 60 1017.9
20260502064503 14 191 3.2 9.7 0.00 0.00 0.00 62 1018.0
20260502063603 13 180 1.6 6.4 0.00 0.00 0.00 64 1017.9
20260502062703 12 194 1.6 4.8 0.00 0.00 0.00 66 1017.8
20260502061803 11 227 0.0 1.6 0.00 0.00 0.00 69 1017.7
20260502061119 11 221 0.0 1.6 0.00 0.00 0.00 70 1017.6
20260502060003 10 208 0.0 1.6 0.00 0.00 0.00 73 1017.6
20260502055403 10 228 0.0 1.6 0.00 0.00 0.00 75 1017.6
20260502054503 9 0 0.0 0.0 0.00 0.00 0.00 78 1018.6
20260502053817 8 0 0.0 0.0 0.00 0.00 0.00 78 1018.6
20260502052703 8 0 0.0 0.0 0.00 0.00 0.00 81 1018.7
20260502052015 7 0 0.0 0.0 0.00 0.00 0.00 82 1018.8
20260502050903 7 229 0.0 1.6 0.00 0.00 0.00 85 1018.9
20260502050003 6 229 0.0 1.6 0.00 0.00 0.00 84 1019.0
20260502045403 5 0 0.0 0.0 0.00 0.00 0.00 84 1018.9
20260502044503 5 0 0.0 0.0 0.00 0.00 0.00 83 1018.9
20260502043603 5 0 0.0 0.0 0.00 0.00 0.00 82 1018.9
20260502042703 5 229 0.0 1.6 0.00 0.00 0.00 83 1018.9
20260502041803 5 0 0.0 0.0 0.00 0.00 0.00 83 1018.9
20260502040903 5 0 0.0 0.0 0.00 0.00 0.00 82 1018.9
20260502040003 5 0 0.0 0.0 0.00 0.00 0.00 82 1019.0
20260502035403 5 0 0.0 0.0 0.00 0.00 0.00 82 1019.1
20260502034503 6 0 0.0 0.0 0.00 0.00 0.00 81 1019.2
20260502033603 6 229 0.0 0.0 0.00 0.00 0.00 82 1019.2
20260502032703 6 0 0.0 0.0 0.00 0.00 0.00 81 1019.2
20260502031803 6 229 0.0 1.6 0.00 0.00 0.00 82 1019.2
20260502030903 6 0 0.0 0.0 0.00 0.00 0.00 83 1019.3
20260502030003 6 0 0.0 0.0 0.00 0.00 0.00 82 1019.4
20260502025403 6 0 0.0 0.0 0.00 0.00 0.00 83 1019.4
20260502024716 6 229 0.0 1.6 0.00 0.00 0.00 83 1019.4
20260502023603 6 0 0.0 0.0 0.00 0.00 0.00 83 1019.4
20260502022703 6 0 0.0 0.0 0.00 0.00 0.00 82 1019.5